Regional Weather Roundup
Issued by NWS Cleveland, OH

Home | Current Version | Previous Version | Graphics & Text | Print | Product List | Glossary On
Versions: 1 2 3 4 5 6 7 8 9 10 11 12 13 14 15 16 17 18 19 20 21 22 23 24 25 26 27 28 29 30 31 32 33 34 35 36 37 38 39 40 41 42 43 44 45 46 47 48 49 50
000
ASUS41 KCLE 301810
RWRCLE
OHIO REGIONAL WEATHER ROUNDUP
NATIONAL WEATHER SERVICE WILMINGTON, OH
200 PM EDT SAT AUG 30 2014

NOTE: "FAIR" INDICATES FEW OR NO CLOUDS BELOW 12,000 FEET WITH NO
SIGNIFICANT WEATHER AND/OR OBSTRUCTIONS TO VISIBILITY.

OHZ001>008-015>018-024>027-034-035-043-044-301900-
   NORTHWEST OHIO

CITY           SKY/WX    TMP DP  RH WIND       PRES   REMARKS
DEFIANCE       PTSUNNY   84  68  58 SW17G23   29.96S
FINDLAY        PTSUNNY   85  68  56 S16       29.98F
TOLEDO EXPRESS PTSUNNY   84  67  56 SW14G23   29.95F
TOLEDO METCALF PTSUNNY   86  66  51 SW22G31   29.96F
LIMA           CLOUDY    82  68  62 SW14      30.01F
$$

OHZ009>014-019>023-028>033-038-089-301900-
   NORTHEAST OHIO

CITY           SKY/WX    TMP DP  RH WIND       PRES   REMARKS
CLE-HOPKINS    PTSUNNY   87  66  49 S15G25    30.01F
CLE-LAKEFRONT  PTSUNNY   89  63  41 S21G29    29.97F HX  90
CUY CO. ARPT   PTSUNNY   88  66  48 SW18      30.01F HX  90
LORAIN-ELYRIA  MOSUNNY   90  65  43 SW20G26   30.00F HX  92
ASHTABULA      MOSUNNY   84  71  65 SW12G18   30.03F
AKRON-CANTON   PTSUNNY   88  65  46 SW13G22   30.05F HX  90
WOOSTER        MOSUNNY   84  67  56 S15G21    30.05F
MANSFIELD      MOSUNNY   87  65  47 SW18G26   30.04F
YOUNGSTOWN     PTSUNNY   84  70  62 SW14G20   30.06F
$$

OHZ042-051>053-060>062-070>072-077>081-301900-
  SOUTHWEST OHIO

CITY           SKY/WX    TMP DP  RH WIND       PRES   REMARKS
CINC-COVINGTON PTSUNNY   85  66  53 S9        30.06F
CINC-LUNKEN    PTSUNNY   86  65  49 SW9       30.05F
HAMILTON       PTSUNNY   82  69  64 VRB5      30.05F
DAYTON         CLOUDY    84  66  54 SW18G28   30.06F
WRIGHT-PAT AFB MOSUNNY   85  68  55 SW10G22   30.05S
DAYTON GENERAL PTSUNNY   83  66  56 SW10      30.05F
WILMINGTON     PTSUNNY   86  66  51 SW13      30.06F
$$

OHZ036-037-039>041-045>050-054>059-063>069-073>076-082>088-301900-
  CENTRAL AND SOUTHEAST OHIO

CITY           SKY/WX    TMP DP  RH WIND       PRES   REMARKS
COLUMBUS       PTSUNNY   91  61  36 S16G23    30.04F HX  91
OSU AIRPORT    SUNNY     89  62  40 SW15G26   30.04F
BOLTON FIELD   MOSUNNY   84  68  58 SW12G20   30.05F
RICKENBACK AFB PTSUNNY   91  55  29 SW18G28   30.04F
NEWARK         SUNNY     86  66  51 SW13G21   30.05F
MARION         MOSUNNY   87  66  49 SW15G23   30.03F
LANCASTER      SUNNY     89  64  43 SW14G21   30.06F HX  90
ZANESVILLE     SUNNY     88  64  44 S13G23    30.07F
NEW PHILLY     MOSUNNY   85  70  60 S6G17     30.07F
$$



USA.gov is the U.S. government's official web portal to all federal, state and local government web resources and services.